Theta_e
291 288 286 289 290 291 289 288 288 291 296 294 293 294 296 299 297 297 299 300 301 301 304 304 307 309 314 317 323 329 329 331 332 327 325 329 336 339 343 345 346 346 343 343
290 287 293 294 293 292 291 288 288 292 296 294 293 293 296 298 297 297 299 300 300 300 302 305 308 311 314 316 320 320 323 321 319 319 318 319 324 326 327 331 332 337 341 342
288 292 297 295 292 291 290 288 288 290 293 294 292 290 293 298 298 299 298 299 300 300 301 307 310 310 313 314 316 316 316 317 318 321 318 316 315 316 317 319 322 326 331 334
290 294 294 292 292 292 287 293 293 292 289 285 292 283 289 293 295 298 298 298 300 301 301 302 309 310 311 314 314 315 315 315 317 318 315 313 311 311 313 315 318 321 324 326
290 291 291 290 292 294 291 295 293 292 287 286 287 284 288 292 293 296 297 300 301 303 303 302 306 312 310 310 310 311 312 315 316 315 314 313 313 313 315 316 317 318 321 324
292 296 295 294 296 295 296 290 288 286 284 280 285 285 285 289 293 297 299 301 301 301 302 302 305 307 305 306 308 312 314 314 314 315 315 314 314 313 313 314 315 317 319 322
291 291 295 297 292 295 290 285 279 278 278 279 286 285 286 294 299 299 299 299 300 300 300 301 302 303 304 306 309 313 312 311 312 313 316 314 314 312 313 312 313 315 318 320
286 284 293 299 294 291 288 285 280 277 276 279 288 283 289 299 299 298 298 298 299 298 298 300 300 301 301 301 301 302 304 305 305 308 310 310 311 311 312 313 314 316 318 320
288 289 299 301 299 296 290 286 288 282 282 280 283 287 295 298 298 299 299 299 297 297 297 297 298 298 299 300 300 300 301 303 305 305 306 308 310 311 311 313 315 317 319 320
291 287 297 300 301 298 293 294 286 283 278 277 281 284 285 293 294 296 296 296 296 297 298 299 300 301 301 301 302 303 303 303 304 304 304 306 307 309 311 312 313 314 317 318
292 289 290 293 292 291 291 288 288 287 283 278 278 282 292 293 294 293 294 295 295 296 297 298 299 300 300 301 301 302 302 303 303 304 304 304 304 305 306 308 311 313 316 317
296 290 285 287 293 295 292 290 289 283 282 281 279 281 294 292 293 293 294 296 296 297 296 297 298 298 299 299 300 301 302 301 302 303 303 302 303 303 303 304 306 308 310 313
296 288 284 284 289 292 290 292 291 289 287 283 281 283 295 295 293 293 293 294 296 296 296 297 296 296 297 298 298 299 300 300 301 302 301 301 302 301 302 303 304 305 306 307
298 289 286 282 283 287 287 290 291 288 284 284 285 287 293 293 292 293 293 294 294 294 295 295 295 295 296 297 297 298 299 300 300 300 300 299 300 301 301 302 302 303 304 304
290 284 287 288 290 290 288 289 289 287 286 284 286 289 293 293 292 292 293 294 294 293 294 295 295 295 295 295 296 298 298 299 299 298 297 297 298 299 299 300 301 302 302 303
288 283 284 284 288 287 285 288 288 288 288 289 289 288 293 292 292 292 292 294 292 292 294 294 295 296 296 296 296 297 297 296 297 295 295 296 296 297 297 297 298 298 299 301
286 284 281 279 284 284 280 284 286 288 289 288 284 289 291 290 291 291 292 293 292 292 293 294 294 294 295 295 295 294 294 295 295 294 295 295 295 295 296 297 296 296 297 298
285 283 280 278 280 275 283 293 293 291 291 291 290 291 292 291 292 292 293 292 292 292 293 292 294 294 294 294 293 294 294 294 294 293 294 294 294 294 295 295 295 296 297 297
289 283 281 275 275 281 289 293 293 291 289 292 290 291 291 291 290 290 294 293 291 291 292 293 293 292 292 292 294 292 292 293 292 292 293 294 294 294 294 294 294 295 296 295
289 286 280 281 273 275 284 295 299 298 286 292 291 289 289 289 283 286 291 291 291 291 292 292 293 292 292 291 291 291 291 291 291 292 292 294 294 294 293 294 294 295 295 294
286 286 283 282 277 281 289 296 297 282 283 291 290 289 288 286 288 289 290 291 291 290 291 291 289 289 289 290 291 289 290 289 291 292 293 293 294 294 294 294 295 295 295 295
285 283 283 284 280 274 295 293 286 288 291 290 289 288 287 288 288 289 289 288 289 288 288 289 288 288 289 290 290 289 288 291 291 292 292 293 294 295 296 295 294 294 294 294
287 289 282 283 282 291 296 293 295 293 290 288 287 289 288 287 287 287 288 288 287 287 287 288 287 288 289 289 289 288 289 290 291 291 291 292 294 295 296 294 294 294 295 295
294 297 291 286 289 294 297 293 291 291 289 290 290 288 288 286 287 287 286 286 287 287 286 288 287 286 286 288 289 289 290 291 291 291 292 293 293 295 296 296 297 296 295 295
287 295 291 292 295 297 294 293 292 290 290 289 289 288 287 287 287 287 286 286 286 286 287 287 286 286 286 288 288 289 290 291 290 291 292 294 295 296 296 296 297 297 299 298
287 287 285 283 291 289 288 290 291 289 288 289 288 287 289 288 287 287 286 286 286 286 286 286 286 286 286 287 287 288 290 290 290 290 292 295 296 296 296 296 297 296 295 294
Wind_Speed
4 5 8 11 12 10 5 4 4 5 5 6 13 17 18 16 6 10 14 16 14 13 10 5 6 7 7 5 8 10 10 8 9 5 4 3 3 2 2 3 5 6 5 5
3 7 10 10 6 5 4 3 4 5 4 6 8 12 9 7 7 9 17 17 13 7 5 6 8 8 10 10 9 7 7 9 7 4 3 3 4 2 3 3 3 4 4 3
7 5 6 6 5 5 5 5 5 5 3 1 4 6 5 1 5 6 8 6 5 7 3 5 6 10 10 11 10 9 7 7 4 5 5 4 4 4 2 0 2 3 4 3
5 4 7 5 6 7 5 9 6 4 5 4 1 3 5 5 7 4 4 1 5 6 5 6 9 9 10 10 7 8 8 8 6 7 5 5 4 4 4 4 3 3 2 4
6 2 2 4 8 9 10 7 9 5 6 5 1 5 7 4 5 3 6 5 7 7 7 6 10 11 3 6 4 4 3 5 5 5 5 5 4 3 3 2 3 3 4 6
7 3 3 4 2 4 1 5 7 5 5 2 5 7 6 4 2 5 4 8 7 6 7 5 2 7 7 7 6 5 5 4 6 6 7 9 9 7 4 4 4 4 4 4
2 4 4 3 2 2 5 6 4 4 3 5 2 3 7 3 1 4 4 6 6 5 3 5 7 7 7 8 7 8 9 8 7 8 8 9 9 8 9 7 5 5 4 4
6 4 7 3 5 6 2 6 7 6 4 3 4 3 3 5 6 3 6 5 8 9 8 8 8 8 8 8 8 8 7 7 7 6 6 6 7 5 5 6 6 7 7 6
5 2 2 1 4 5 3 3 3 8 4 4 2 3 5 4 6 9 9 10 10 10 10 10 11 10 10 10 9 7 7 7 7 7 5 5 4 4 5 7 5 6 5 5
6 4 1 1 2 5 4 5 4 4 5 3 3 3 5 4 5 5 8 8 8 8 9 9 10 9 7 7 6 8 8 7 5 6 6 5 5 5 4 4 5 5 6 5
4 5 3 2 3 5 2 3 6 5 4 6 3 6 4 3 1 6 6 7 7 7 7 7 7 7 6 6 6 6 6 6 6 5 4 5 5 5 5 4 4 5 5 6
3 4 3 2 4 2 2 3 5 6 4 2 4 6 1 6 6 5 6 6 5 6 6 6 6 7 6 6 6 5 5 5 5 5 5 6 6 6 6 6 6 6 6 6
5 2 3 6 5 5 2 2 4 5 4 7 7 6 4 6 6 4 5 5 4 4 4 4 6 6 6 6 6 6 6 5 5 5 7 9 10 9 11 10 10 9 10 11
4 3 4 7 4 3 3 3 2 5 4 4 5 3 6 4 5 2 3 3 3 3 5 5 5 5 5 5 6 5 7 5 7 9 11 12 13 13 12 12 12 11 12 13
5 4 2 2 3 2 2 3 4 5 5 6 4 7 8 3 7 4 1 1 2 5 6 6 6 6 6 6 6 8 9 10 10 11 13 14 14 14 14 13 13 13 12 13
4 3 2 2 4 3 3 6 6 7 5 6 6 7 4 4 5 3 3 3 3 5 6 6 5 6 8 10 11 12 12 12 11 12 13 13 14 13 13 14 15 15 15 12
4 6 3 3 3 4 5 6 6 4 2 4 8 7 3 2 4 3 5 4 5 7 7 8 7 8 10 11 12 12 13 12 12 12 13 14 14 14 14 14 15 15 15 14
5 5 3 2 2 3 3 5 4 10 4 4 4 3 3 3 5 8 5 3 5 8 11 9 11 11 11 14 13 13 12 13 13 14 14 13 14 14 14 14 14 15 14 14
3 5 4 4 2 4 2 2 3 1 3 2 3 2 2 5 6 4 3 4 4 7 8 11 8 10 15 14 14 14 14 13 13 14 14 14 14 15 15 15 15 14 12 12
5 6 6 3 3 3 3 2 4 1 2 1 2 2 4 5 5 4 6 9 9 7 8 9 14 15 14 14 13 14 14 14 14 14 14 14 14 15 15 15 14 13 12 14
3 3 4 2 1 5 2 3 2 4 3 1 2 2 2 2 4 6 8 8 6 7 12 12 13 13 15 14 14 14 14 14 14 14 15 15 14 15 14 14 12 12 12 12
5 5 3 3 2 6 3 2 1 3 2 4 2 2 4 5 7 7 9 9 13 15 15 14 13 13 14 13 12 14 14 14 14 14 14 15 15 12 10 12 12 12 11 12
3 4 6 6 4 3 3 4 3 4 4 3 4 4 4 5 5 10 13 16 15 15 14 11 12 13 12 11 11 13 14 14 14 14 14 13 14 13 10 10 12 10 9 9
3 3 2 3 1 4 4 8 5 8 7 5 5 4 5 9 11 13 15 14 12 12 12 13 12 12 13 12 12 12 13 13 13 13 14 12 12 12 10 9 8 8 8 8
3 4 4 1 2 5 8 8 8 7 6 6 6 5 7 11 12 11 12 12 12 12 11 10 10 11 13 12 13 12 12 12 12 13 12 12 9 10 9 8 8 8 9 9
3 6 5 6 5 5 4 6 5 7 6 5 5 8 10 10 11 12 11 11 11 11 10 10 10 11 12 12 12 12 12 12 12 12 10 9 8 8 7 8 9 11 15 14
Wind_Direction
241 143 196 215 194 208 203 212 188 205 164 127 198 210 220 235 210 226 227 234 241 239 256 208 152 165 166 185 174 179 167 175 156 154 144 128 178 158 138 157 189 206 203 210
96 239 225 211 203 191 200 218 246 275 222 159 182 218 217 191 231 214 224 224 221 236 207 185 156 163 193 189 192 167 172 161 162 136 124 130 144 142 137 145 158 180 185 194
170 212 181 190 182 185 215 185 211 205 29 276 97 335 311 212 240 241 232 203 193 237 226 191 192 195 192 197 189 171 152 141 120 115 107 75 64 55 70 217 201 193 161 179
215 241 194 184 222 172 229 209 211 185 100 223 116 237 291 276 292 285 22 283 246 233 236 200 196 195 198 205 166 157 154 148 141 148 129 146 153 159 205 179 184 169 196 200
239 210 191 167 210 168 226 194 201 193 158 128 271 98 264 311 273 316 319 327 323 322 314 253 212 210 130 103 80 47 98 128 139 148 153 153 172 195 179 173 186 219 217 216
209 237 223 224 163 206 204 93 45 68 117 156 203 144 266 202 249 301 325 340 340 331 315 313 134 126 104 87 91 112 145 185 189 186 193 190 190 192 189 208 216 220 227 222
182 225 262 176 146 320 79 67 11 4 6 215 316 120 210 255 272 235 287 354 358 10 12 86 97 96 99 131 164 175 185 201 203 207 211 210 211 196 205 208 204 205 221 219
166 247 189 183 168 181 60 137 151 188 177 234 2 263 283 345 331 52 75 70 45 34 34 36 45 50 46 36 35 27 16 352 12 7 345 347 345 324 286 241 213 220 211 207
147 241 21 145 151 130 195 69 159 100 14 69 255 296 354 351 20 42 33 41 34 36 30 28 35 41 41 42 30 18 9 16 16 9 4 8 353 324 278 276 263 287 265 217
198 160 16 253 122 35 110 154 67 18 133 201 290 274 208 194 42 28 25 32 39 48 52 50 50 52 52 53 49 47 52 53 31 28 27 25 10 354 328 310 314 291 283 283
126 119 267 42 27 155 44 84 54 105 112 153 159 255 289 113 98 97 56 53 65 55 42 36 35 38 44 46 39 33 26 6 355 346 338 337 317 309 306 319 309 291 285 277
352 120 140 115 308 261 87 167 138 129 198 108 140 267 330 103 100 97 101 88 71 76 50 35 28 13 18 13 2 356 349 340 326 312 318 307 295 292 287 275 265 263 257 255
197 327 62 355 3 10 89 128 118 106 96 189 158 246 168 110 87 64 121 105 76 58 47 20 19 356 346 342 342 338 340 325 307 303 299 298 294 293 293 288 282 272 277 276
94 86 148 185 166 160 137 121 123 113 137 193 213 242 209 149 151 129 111 113 72 31 2 342 338 322 317 327 332 333 317 297 303 308 306 300 299 296 292 289 284 275 276 276
85 120 120 124 106 114 213 227 195 185 189 177 211 217 240 207 185 148 341 144 16 346 343 328 314 311 319 326 319 314 308 313 313 307 304 299 299 298 296 294 292 287 278 273
19 115 89 65 54 61 240 234 224 231 227 243 235 251 239 128 112 24 319 255 309 321 308 298 296 319 325 319 317 315 312 310 309 303 299 299 297 294 294 292 289 288 285 278
80 126 102 223 355 326 290 238 218 159 92 207 214 245 154 56 359 314 292 273 333 314 310 322 328 319 318 318 315 309 306 305 299 295 296 294 293 291 288 289 286 283 277 274
120 101 82 139 8 213 230 328 147 118 88 83 86 84 71 10 304 289 260 175 322 322 336 330 322 318 321 316 311 303 305 304 301 302 298 298 294 292 290 293 293 291 294 284
102 113 106 121 182 298 91 107 98 96 164 14 99 57 38 337 310 319 93 35 324 333 319 310 312 320 313 307 315 309 302 304 299 297 296 296 296 295 293 290 292 292 287 288
65 75 105 136 125 201 223 99 10 74 254 94 101 4 351 12 357 269 1 346 320 305 298 296 314 314 309 310 305 305 302 302 298 297 295 295 293 290 287 285 285 284 287 287
120 84 155 157 278 288 253 304 303 123 218 43 86 13 1 265 223 304 325 316 296 297 317 333 315 312 309 308 305 301 301 295 297 298 298 295 291 287 282 282 282 286 287 284
150 149 161 144 184 288 339 31 99 187 55 88 65 33 328 303 299 297 302 306 322 323 322 320 310 309 307 303 305 298 296 300 301 299 297 294 293 292 290 290 287 282 280 279
151 159 174 171 202 205 18 76 53 121 103 49 69 9 339 307 307 315 322 323 322 320 317 311 306 305 307 303 302 298 299 304 303 303 300 299 297 291 280 283 280 281 275 272
86 138 109 83 194 156 112 75 66 73 88 71 55 15 356 332 333 326 325 321 318 319 316 312 311 308 309 311 307 300 305 309 306 303 301 300 297 294 293 287 278 270 269 271
203 127 151 185 83 97 62 90 104 84 75 59 39 12 350 343 331 321 319 320 318 315 313 313 308 309 309 313 313 314 312 314 312 308 300 294 293 294 290 288 285 280 272 256
191 172 150 216 188 113 106 118 115 90 71 55 34 3 0 340 326 325 325 320 311 315 318 315 314 314 317 318 316 318 320 322 311 305 303 303 303 300 296 293 297 268 253 263